User: anonymous   Login
Location: Meetinghouse Hill
(42.7686°N, 71.7752°W)
Time: 06:38:49
(UTC-04:00)
Language:

Iridium 34 - Orbit

View from above orbital plane
View from above orbital plane
View from above satellite
View from above satellite

Ground track
Ground track

The orbit data is extracted from the following two-line orbital elements,

1 24969U 97056E   15087.23258409  .00000322  00000-0  10803-3 0  9993
2 24969 086.3932 298.1917 0002039 088.0172 272.1257 14.34216349916155
Epoch (UTC): 28 March 2015 05:34:55
Eccentricity: 0.0002039
inclination: 86.3932°
perigee height: 776 km
apogee height: 779 km
right ascension of ascending node: 298.1917°
argument of perigee: 88.0172°
revolutions per day: 14.34216349
mean anomaly at epoch: 272.1257°
orbit number at epoch: 91615

The dashed part of the orbit path shows where the satellite is in the earth's shadow,  

DLR